Regional Weather Roundup
Issued by NWS

Home | Current Version | Previous Version | Text Only | Print | Product List | Glossary On
Versions: 1 2 3 4 5 6 7 8 9 10 11 12 13 14 15 16 17 18 19 20 21 22 23 24 25 26 27 28 29 30 31 32 33 34 35 36 37 38 39 40 41 42 43 44 45 46 47 48 49 50
000
ASUS43 KBIS 222102
RWRND

NORTH DAKOTA REGIONAL WEATHER ROUNDUP
NATIONAL WEATHER SERVICE BISMARCK ND
300 PM CST WED NOV 22 2017

NOTE: "FAIR" INDICATES FEW OR NO CLOUDS BELOW 12,000 FEET WITH NO
SIGNIFICANT WEATHER AND/OR OBSTRUCTIONS TO VISIBILITY.


NDZ001>003-009>011-017-222200-
NORTHWEST NORTH DAKOTA

CITY           SKY/WX    TMP DP  RH WIND       PRES   REMARKS
WILLISTON      SUNNY     51  32  48 W15       29.90R
MINOT          SUNNY     41  26  55 NW21      29.84R
MINOT AFB      SUNNY     38  24  56 NW15      29.83R
$$

NDZ018>021-031>035-040>046-222200-
SOUTHWEST NORTH DAKOTA

CITY           SKY/WX    TMP DP  RH WIND       PRES   REMARKS
BISMARCK       SUNNY     56  31  38 VRB3      29.82S
DICKINSON      CLOUDY    62  38  40 NW24G32   29.86R
GARRISON         N/A     49  35  58 NW21      29.82R
HETTINGER ARPT CLOUDY    65  37  35 NW35G43   29.90R
$$

NDZ004>008-012>016-024-026-027-054-222200-
NORTHEAST NORTH DAKOTA

CITY           SKY/WX    TMP DP  RH WIND       PRES   REMARKS
GRAND FORKS    CLOUDY    28  18  66 S16       29.89F WCI  16
GRND FRKS AFB  CLOUDY    28  16  62 S17       29.88F WCI  15
DEVILS LAKE    SUNNY     30  21  69 SE5       29.83S
$$

NDZ022-023-025-028>030-036>039-047>053-222200-
SOUTHEAST NORTH DAKOTA

CITY           SKY/WX    TMP DP  RH WIND       PRES   REMARKS
FARGO          CLOUDY    30  16  56 S18G28    29.89F WCI  18
JAMESTOWN      SUNNY     45  26  47 W12       29.80F
$$




USA.gov is the U.S. government's official web portal to all federal, state and local government web resources and services.